Regional Weather Roundup
Issued by NWS Wilmington, NC

Home | Current Version | Previous Version | Text Only | Print | Product List | Glossary On
Versions: 1 2 3 4 5 6 7 8 9 10 11 12 13 14 15 16 17 18 19 20 21 22 23 24 25 26 27 28 29 30 31 32 33 34 35 36 37 38 39 40 41 42 43 44 45 46 47 48 49 50
000
ASUS42 KILM 130013
RWRILM
RWRILM
REGIONAL HOURLY WEATHER ROUNDUP
NATIONAL WEATHER SERVICE WILMINGTON NC
700 PM EST FRI FEB 12 2016

NOTE: "FAIR" INDICATES FEW OR NO CLOUDS BELOW 12,000 FEET WITH NO
SIGNIFICANT WEATHER AND/OR OBSTRUCTIONS TO VISIBILITY.

...............WFO WILMINGTON COUNTY WARNING AREA...............

......COASTAL NC AND SC COUNTIES......

CITY           SKY/WX    TMP DP  RH WIND       PRES   REMARKS
WILMINGTON     CLOUDY    35  31  85 NW6       30.05R WCI  30
N MYRTLE BEACH CLEAR     38  27  64 NW3       30.05R
MYRTLE BEACH   PTCLDY    43  25  49 N8        30.07R

......INLAND NC AND SC COUNTIES.......

CITY           SKY/WX    TMP DP  RH WIND       PRES   REMARKS
LUMBERTON      CLOUDY    33  28  81 NW3       30.06R
ELIZABETHTOWN  CLOUDY    32  30  92 CALM      30.05R
WHITEVILLE     CLOUDY    36  29  76 CALM      30.06R
FLORENCE       CLEAR     34  27  75 SW3       30.06R
DARLINGTON     CLEAR     32  25  74 CALM      30.08R
KINGSTREE      FAIR      36  30  80 CALM      30.07R
HARTSVILLE     FAIR      34  27  75 CALM      30.06R
BENNETTSVILLE  FAIR      32  32 100 CALM      30.07R
CONWAY         NOT AVBL
GEORGETOWN     CLOUDY    43  32  65 CALM      30.07R
MARION         FAIR      36  28  75 CALM      30.06S

....................REST OF NORTH CAROLINA......................

.........EASTERN NC.........

CITY           SKY/WX    TMP DP  RH WIND       PRES   REMARKS
CAPE HATTERAS  PTCLDY    36  35  96 VRB7      29.97F WCI  30
JACKSONVILLE   CLOUDY    32  27  80 CALM      30.04S
MOREHEAD CITY  CLOUDY    34  33  96 N6        30.01S WCI  29
KENANSVILLE    CLOUDY    31  31  98 CALM      30.05R
NEW BERN       CLOUDY    33  31  92 N6        30.03S WCI  28
ELIZABETH CITY CLOUDY    29  27  92 N7        30.00S WCI  22

.........CENTRAL NC.........

CITY           SKY/WX    TMP DP  RH WIND       PRES   REMARKS
RALEIGH DURHAM MOCLDY    31  21  66 W3        30.04R
ROCKY MOUNT    CLOUDY    29  24  82 W3        30.04R
ROANOKE RAPIDS NOT AVBL
FAYETTEVILLE   CLOUDY    31  28  89 CALM      30.05R
HOFFMAN        MOCLDY    31  29  94 SW6       30.05R WCI  25

.........WESTERN NC.........

CITY           SKY/WX    TMP DP  RH WIND       PRES   REMARKS
CHARLOTTE      MOCLDY    33  24  69 CALM      30.04R
GREENSBORO     CLOUDY    34  18  52 SW6       30.00R WCI  29
HICKORY        NOT AVBL
BOONE          NOT AVBL
ASHEVILLE      NOT AVBL

.....................REST OF SOUTH CAROLINA.....................

.........EASTERN SC.........

CITY           SKY/WX    TMP DP  RH WIND       PRES   REMARKS
CHARLESTON     PTCLDY    47  43  86 NE5       30.05R
BEAUFORT MCAS  PTCLDY    56  50  80 N7        30.05R
HILTON HEAD    CLEAR     54  54 100 CALM      30.05R

.........CENTRAL SC.........

CITY           SKY/WX    TMP DP  RH WIND       PRES   REMARKS
COLUMBIA       CLEAR     44  32  62 CALM      30.04F
ORANGEBURG     CLEAR     47  36  65 E5        30.05R
SUMTER SHAW    CLEAR     40  29  65 NE2       30.04R

.........WESTERN SC.........

CITY           SKY/WX    TMP DP  RH WIND       PRES   REMARKS
GREENVILLE     NOT AVBL
ROCK HILL      PTCLDY    30  27  88 S3        30.04R
ANDERSON       CLEAR     48  30  49 NW13      30.04R
CLEMSON        NOT AVBL
GREENWOOD      CLEAR     46  29  51 SW5       30.05R


...................COASTAL AND OFFSHORE REPORTS..................

................LOCAL PIERS AND NC RESERVE................


STATION/POSITION TIME  SKY/WX   TEMP    WIND        PRES    VSBY
                                AIR SEA DIR/SP/G
                 (UTC)          (F)     (DEG/KT/KT) (MB)    (MI)
JOHNY MRCER PIER 2300            34 51              1015.8R
NC RESRV MASNBRO NOT AVBL
OCEAN CREST PIER NOT AVBL
SPRINGMAID  PIER 2300            43 49              1016.8R


................COASTAL AND OFFSHORE BUOYS................


STATION/POSITION TIME  SKY/WX   TEMP    WIND        PRES    VSBY
                                AIR SEA DIR/SP/G
                 (UTC)          (F)     (DEG/KT/KT) (MB)    (MI)
DIMNDSHOAL 41025 2350            44 63   20/ 19/ 21 1013.9F
WVE H/P(F/S)=  5/ 6 SWL H/P/D(F/S/D)=  2/ 20/15

CAPE LOOKOUT     NOT AVBL
ONSLOW BAY 41036 NOT AVBL
ONSLOW BAY 41064 2308            39 59              1015.8R
ONSLOW BAY 41159 2325               59                N/A
WVE H/P(F/S)=  5/ 5

5SE WRITBC 41038 2308            37 51  350/  8/ 12 1017.1R
MASNBO INL 41110 2306               51                N/A
WVE H/P(F/S)=  3/ 5

WILM HARBR 41108 2326               51                N/A
WVE H/P(F/S)=  3/ 6

27SE WRITB 41037 2308            36 60  360/ 10/ 16 1015.2R
FRYING PAN 41013 2300            44 53  340/ 10/ 12 1016.5S
SUNST NRSH 41024 NOT AVBL
CAPRS NRSH 41029 2308            48      80/  4/  8 1016.8R
EDISTO     41004 2350            54 67  320/  8/ 10 1016.5R
WVE H/P(F/S)=  5/ 6 SWL H/P/D(F/S/D)=  5/ 6



..........OFFSHORE BUOYS BEYOND 100 NM OFFSHORE...........
.....IN A TRIANGLE---HAT TO BERMUDA TO BAHAMAS TO HAT.....


STATION/POSITION TIME  SKY/WX   TEMP    WIND        PRES    VSBY
                                AIR SEA DIR/SP/G
                 (UTC)          (F)     (DEG/KT/KT) (MB)    (MI)
150E HAT   41001 2300            61 69  140/ 27/ 37 1006.3F
W BERMUDA  41048 2350            66 69  190/ 25/ 31 1019.1F
WVE H/P(F/S)=  9/11 SWL H/P/D(F/S/D)=  7/340/11

ATLANTIC S 41049 2350            71 75   40/ 12/ 14 1023.2F
WVE H/P(F/S)=  9/11 SWL H/P/D(F/S/D)=  8/290/11

E BAHAMAS  41046 2350            75 79   90/ 19/ 23 1020.1R
WVE H/P(F/S)=  8/ 9 SWL H/P/D(F/S/D)=  5/360/ 9

NE BAHAMAS 41047 2350            70 75  160/  8/ 12 1022.9S
WVE H/P(F/S)=  5/ 9 SWL H/P/D(F/S/D)=  5/300/ 9

120E CANVRL41010 2320            70 72              1020.8F

END



USA.gov is the U.S. government's official web portal to all federal, state and local government web resources and services.